STARLINK-1500, 45744

Orbit data source: Space-Track

STARLINK-1500, 45744 is a payload satellite owned by SpaceX/Seattle (US) in LEO that was launched on Sat, 13 Jun 2020 UTC via an FALCON 9 launch vehicle from the Air Force Eastern Test Range (AFETR). Payload-class satellites include a variety of spacecraft equipped with specific instruments for various scientific and technological missions. These include communications satellites like Starlink; space stations such as the ISS; scientific satellites like the Hubble; Earth observation satellites from companies like Planet Labs, Umbra, and HawkEye 360; GPS; miniature CubeSats for education and research; and military/defense satellites.

Loading next visibility...
Identifier
45744, 2020-038Q
Orbit
LEO
Country
Flag of USUS
Related business
Manufacturer
SpaceX/Seattle
Mission
Partially operational Commercial Communications
Bus & Motor
STARLINK, Unknown motor
Mass
260 kg wet, ~248 kg dry
Launch date (UTC)
2020-06-13 (5 years ago)
Launch vehicle
FALCON 9
Launch site
Air Force Eastern Test Range (AFETR)
Object type
Payload
Rocket body
Debris
Shape & HBR
Box + 1 Pan, 4.4 m
Radar Cross Section
13.562 m², Large (>1 m²)

Expand to show TLE details & history
Last TLE update: 18 hours ago

TLE from 18 hours ago
0 STARLINK-1500
1 45744U 20038Q   25257.48161957  .00010261  00000-0  41988-3 0  9992
2 45744  53.0427 293.0580 0005401  51.7360 308.4122 15.24902306289849
Epoch: 2025-09-14T11:33Z
TLE epoch observation values (Epoch: 2025-09-14T11:33:31.93Z)
Latitude
-0.00005°
Longitude
125.97492°
Altitude
489.66 km
Speed
7.623 km/s
True Right ascension
19h 32m 13s
True Declination
0° 00' 00"
Sunlit
Object was in full shadow at epoch
Visualization orbit readout
Latitude
Unknown
Longitude
Unknown
Altitude
Unknown
Speed
Unknown
Apparent Right ascension
Unknown
Apparent Declination
Unknown
Sunlit
N/A
Visualization observer readout
Local Sidereal Time
22:00:50
Azimuth
Unknown
Elevation
Unknown
Doppler factor
Unknown
Orbital elements
Apogee altitude
495.064 km
Perigee altitude
487.643 km
Semi-major axis
6,869.491 km
Eccentricity
0.00054
Inclination
53.0427°
RAAN
293.058°
Arg. of periapsis
51.736°
True anomaly
308.36368°
Mean anomaly
308.4122°
Eccentric anomaly
308.38794°
Mean motion
3.81203 °/min
Orbital period
94.44 mins
BSTAR
0.00041988
Loading maneuver chart data...
Computing Atmospheric mass density...

Documentation

Showing up to 5 results
|